Location: Dimsdale
(55.1333°N, 118.9833°W)
Time: 09:29:45
(UTC+00:00)

SO-50 - Pass Details

Date: 06 December 2023
Orbit: 608 x 660 km, 64.6° (Epoch: 02 March)

Event Time Altitude Azimuth Distance (km) Brightness Sun altitude
Exits shadow 15:02:28 10° 301° (WNW) 2,025 ? -8.2°
Maximum altitude 15:06:16 25° 357° (N) 1,285 ? -7.8°
Drops below altitude 10° 15:10:06 10° 53° (NE) 2,023 ? -7.3°
Sets 15:12:43 0° 67° (ENE) 2,921 ? -6.9°
